Weather in Oleksandrivka

Ukraine / Kherson District     46°18′11″N   32°01′30″E
temp.,
°C
wind,
m/s
gust,
m/s
humid.,
%
clouds,
%
prec.,
mm/h
press.,
hPa
HPBL,
m
7 may, fri
fri700:00+12n3487100 0.0 101468
03:00+11n34866 0.0 101587
06:00+11ne23854 0.0 101554
09:00+14ese3467100 0.0 1016295
12:00+15sse556462 0.0 1016400
15:00+15s6768100 0.0 1015330
18:00+15sse71176100 0.0 1013309
21:00+14sse71378100 0.0 1012272
8 may, sat
sat800:00+14s71481100 0.2 1011302
03:00+13s71589100 0.7 1010309
06:00+14s81588100 0.4 1009301
09:00+14sw5890100 0.7 1011219
12:00+14nnw91079100 0.5 1013539
15:00+12nnw71183100 1.7 1014687
18:00+14nnw51065100 0.8 1015814
21:00+12nnw5960100 0.8 1017256
9 may, sun
sun900:00+11nnw9116295 0.0 1019736
03:00+8nnw911760 0.0 1020641
06:00+8nnw710740 0.0 1023568
09:00+10nnw78610 0.0 1024835
12:00+12nnw67505 0.0 10251406
15:00+14nw57425 0.0 10261428
18:00+14w655138 0.0 1026536
21:00+12w576747 0.0 1027150
10 may, mon
mon1000:00+12nnw45665 0.0 102794
03:00+10ene33629 0.0 102766
06:00+9ne33655 0.0 102882
09:00+13ne34545 0.0 1028469
12:00+15nnw45482 0.0 10271090
15:00+15wnw56484 0.0 10251124
18:00+14w555713 0.0 1024422
21:00+13wnw56705 0.0 1023107
11 may, tue
tue1100:00+12n49645 0.0 1022230
03:00+12nnw71163100 0.0 1021398
06:00+12nnw81065100 0.0 1019491
09:00+13n796694 0.0 1019525
12:00+15n686845 0.0 1018369
15:00+19nw586119 0.0 1015730
18:00+16ene9127591 1.2 1015395
21:00+12ne611710 1.2 1016405